Regional Weather Roundup
Issued by NWS Pendleton, OR

Home | Current Version | Previous Version | Text Only | Print | Product List | Glossary On
Versions: 1 2 3 4 5 6 7 8 9 10 11 12 13 14 15 16 17 18 19 20 21 22 23 24 25 26 27 28 29 30 31 32 33 34 35 36 37 38 39 40 41 42 43 44 45 46 47 48 49 50
709
ASUS46 KPDT 240210
RWRPDT
PENDLETON REGIONAL WEATHER ROUNDUP
NATIONAL WEATHER SERVICE PENDLETON OREGON
700 PM PDT SAT SEP 23 2017

NOTE: FAIR INDICATES FEW OR NO CLOUDS BELOW 12,000 FEET WITH NO
SIGNIFICANT WEATHER AND/OR OBSTRUCTIONS TO VISIBILITY.

# INDICATES UNOFFICIAL STATION AND DATA

WAZ520-240310-
EAST SLOPES OF WASHINGTON CASCADES

CITY            SKY/WX      TMP DP  RH  WIND    PRES   REMARKS
#BULLFROG       N/A         60  42  51  W3      N/A
#CLE ELUM HS    N/A         59  41  51  W6      30.00R
#CLE ELUM LAKE  N/A         56  42  59  W1      30.02R
#EASTON DOT     N/A         55  42  61  N5      N/A
#ELK HTS DOT    N/A         60  60  100 SW5     N/A
#GLENWOOD       N/A         59  49  69  S2      30.03S
#NELSON 3SW     N/A         53  42  66  CALM    30.24R
#NILE           N/A         60  40  47  NW2     29.31R
#TEANAWAY 4NE   N/A         61  44  53  W3      N/A
#TROUT LAKE 1NE N/A         59  45  60  NW3     30.04R
#TROUT LAKE 1E  N/A         60  44  55  CALM    30.08R
$$

WAZ521-240310-
SIMCOE HIGHLANDS

CITY            SKY/WX      TMP DP  RH  WIND    PRES   REMARKS
#BICKLETON HS   N/A         53  43  69  CALM    30.03S
#CENTERVILLE 1SWN/A         60  43  53  CALM    29.99R
#GOLDENDALE 1NE N/A         64  25  23  CALM    N/A
#GOLDENDALE 4W  N/A         63  16  16  W1      30.08S
#GOODNOE HILLS  N/A         62  44  52  NW5     N/A
#LYLE 6NE       N/A         62  48  60  S7      30.03S
#PITT 4SE       N/A         58  45  62  SW2     30.06F
$$

WAZ026-240310-
KITTITAS VALLEY

CITY            SKY/WX      TMP DP  RH  WIND    PRES   REMARKS
ELLENSBURG AP   CLOUDY      65  41  41  N5      30.04R
#ELLENSBURG CWU N/A         65  38  37  CALM    29.96R
#ELLENSBURG 3NE N/A         61  47  60  CALM    28.11R
#ELLENSBURG 1E  N/A         64  42  45  CALM    30.06R
#KITTITAS 3S    N/A         63  44  50  CALM    29.99S
#MANASTASH RDG  N/A         62  61  97  SE7     N/A
#ROCKY CYN DOT  N/A         64  38  38  NW7     N/A
#RYEGRASS DOT   N/A         60  35  39  SE6     N/A
$$

WAZ027-240310-
YAKIMA VALLEY

CITY            SKY/WX      TMP DP  RH  WIND    PRES   REMARKS
SUNNYSIDE AP    CLEAR       60  44  55  NE3     30.03S
YAKIMA AIRPORT  MOCLDY      69  40  35  CALM    30.03S
YAKIMA-VAGABOND MOCLDY      64  35  34  S7      30.02S
#DONALD 2NE     N/A         64   6  10  NW2     30.03S
#GRANDVIEW      N/A         61  41  48  SE1     30.04S
#MABTON         N/A         66  44  45  CALM    30.02S
#MOXEE 2E       N/A         63  N/A N/A E3      29.94S
#NACHES 2SW     N/A         65  46  50  CALM    30.05S
#OUTLOOK DOT    N/A         62  42  48  E1      30.00S
#PARKER DOT     N/A         63  46  54  W1      30.02S
#TERRACE HTS    N/A         64  42  45  CALM    29.99S
#TOPPENISH      N/A         65  42  43  CALM    29.93F
#I82 S UMTANUM RN/A         64  34  33  SE1     N/A
#UNION GAP DOT  N/A         64  43  46  E1      30.05S
#W YAKIMA       N/A         64  40  41  CALM    30.02R
#WHITE SWAN 5E  N/A         63  45  52  CALM    30.02S
#WILEY CITY 3W  N/A         65  35  33  CALM    30.00S
#ZILLAH DOT     N/A         62  45  54  NE3     N/A
$$

WAZ028-240310-
LOWER COLUMBIA BASIN...WASHINGTON

CITY            SKY/WX      TMP DP  RH  WIND    PRES   REMARKS
PASCO           CLEAR       66  41  40  E6      30.04S
PROSSER AWOS    N/A         64  41  43  CALM    30.06S
RICHLAND AWOS   CLEAR       67  43  42  E6      30.04R
#BENTON CITY    N/A         64  42  45  CALM    29.93S
#CONNELL 5N     N/A         62  40  44  CALM    30.03F
#CONNELL 5NW    N/A         62  45  54  CALM    29.99R
#ELTOPIA 6NW    N/A         63  46  54  CALM    29.01F
#KAHLOTUS       N/A         64  39  40  CALM    30.04S
#KENNEWICK 3S   N/A         63  42  46  CALM    30.03S
#PATERSON       N/A         66  41  40  SE1     30.01S
#PROSSER DOT    N/A         66  40  38  CALM    30.04S
#SAGEMOOR 2W    N/A         64  44  48  CALM    29.89S
#TOUCHET 2S     N/A         60  44  55  CALM    30.01S
#WEST PASCO     N/A         62  42  48  E2      30.01S
$$

WAZ029-240310-
FOOTHILLS OF THE BLUES...WASHINGTON

CITY            SKY/WX      TMP DP  RH  WIND    PRES   REMARKS
WALLA WALLA AP  CLEAR       61  40  46  NE8     30.05S
#CLYDE 6NW      N/A         61  40  46  CALM    30.03R
#DAYTON SCHOOL  N/A         59  38  45  CALM    30.07S
#LOWDEN 2SE     N/A         65  44  46  CALM    30.00S
#PLEASANT VIEW 1N/A         59  38  45  CALM    30.08R
#PRESCOTT       N/A         58  47  67  CALM    30.03S
#WHITMAN COLLEGEN/A         64  42  45  CALM    30.08S
#WAITSBURG 6SSE N/A         51  42  71  CALM    30.07R
#WALLA WALLA 5E N/A         59  43  55  E5      N/A
#WALLA WALLA U  N/A         67  41  39  CALM    30.03S
#WHITMAN MISSIONN/A         68  46  45  CALM    30.05R
$$

WAZ030-240310-
BLUE MOUNTAINS...WASHINGTON

CITY            SKY/WX      TMP DP  RH  WIND    PRES   REMARKS
#DIXIE 5SE      N/A         54  39  57  N3      30.01S
$$

ORZ009-041-WAZ024-240310-
COLUMBIA RIVER GORGE

CITY            SKY/WX      TMP DP  RH  WIND    PRES   REMARKS
THE DALLES AP   PTCLDY      67  46  47  NW9     30.02R
#CELILO DOT     N/A         68  40  36  SW3     N/A
#LYLE           N/A         68  49  51  SW8     30.02S
#MARYHILL       N/A         64  38  38  N3      29.88
#MURDOCK        N/A         68  48  49  NW8     29.98R
#RUFUS DOT      N/A         70  N/A N/A W3      N/A
#SMITHVILLE     N/A         67  49  52  N8      29.96R

$$

ORZ510-240310-
NORTH CENTRAL OREGON

CITY            SKY/WX      TMP DP  RH  WIND    PRES   REMARKS
#ANTELOPE       N/A         57  37  47  CALM    29.92S
#CHENOWITH 1W   N/A         61  45  56  W16     N/A
#COW CYN RST AREN/A         58  32  37  N2      N/A
#DUFUR          N/A         62  42  48  N1      29.99S
#DUFUR 9E       N/A         59  41  51  N7      30.08S
#GRASS VALLEY 1SN/A         59  38  45  CALM    30.08R
#KENT DOT       N/A         58  27  30  N3      N/A
#MAUPIN SCHOOL  N/A         66  42  42  CALM    30.07S
#MORO SCHOOL    N/A         60  45  58  CALM    30.04S
#SHANIKO 5WSW   N/A         56  26  31  NW2     N/A
#SHANIKO 4NW    N/A         55  33  43  VRB5    30.09S
#TYGH VALLEY 2NEN/A         65  40  40  N3      30.00F
#WAPANITIA AIRPON/A         63  41  44  CALM    30.04S
#WASCO DOT      N/A         62  35  36  CALM    N/A
#WASCO 5NE      N/A         59  40  49  CALM    30.01S
$$

ORZ511-240310-
CENTRAL OREGON

CITY            SKY/WX      TMP DP  RH  WIND    PRES   REMARKS
BEND AIRPORT    CLEAR       57  30  35  N3      30.09S
MADRAS AIRPORT  CLEAR       59  59  100 CALM    30.08S
PRINEVILLE AP   MOCLDY      57  34  42  N7      30.08R
REDMOND AIRPORT CLEAR       58  29  33  N6      30.07S
#ASHWOOD SCHOOL N/A         59  35  40  CALM    30.02S
#BEND 1SW       N/A         50  35  56  CALM    N/A
#BEND-AWBREY    N/A         55  37  51  CALM    30.06S
#BEND-KIM LN    N/A         54  42  64  CALM    30.00F
#CULVER         N/A         57  39  51  CALM    29.92S
#CULVER 8W      N/A         58  38  47  CALM    30.07S
#LAKE BILLY CHINN/A         60  N/A N/A NE2     30.13R
#MADRAS 4S      N/A         58  16  19  CALM    N/A
#POWELL BUTTE   N/A         57  34  42  CALM    30.02S
#PRINEVILLE     N/A         57  41  55  CALM    30.12F
#PRINEVILLE 3N  N/A         55  40  57  NW2     30.04S
#WARM SPRINGS   N/A         63  41  44  CALM    29.88S

$$


ORZ509-240310-
EAST SLOPES OF OREGON CASCADES

CITY            SKY/WX      TMP DP  RH  WIND    PRES   REMARKS
SISTERS AWOS    N/A         57  37  47  CALM    N/A
#CAMP SHERMAN   N/A         52  43  71  CALM    30.14R
#LA PINE 4NW    N/A         51  36  56  CALM    30.13S
#LAVA BUTTE DOT N/A         50  26  39  CALM    N/A
#SISTERS ODOT   N/A         56  39  53  CALM    N/A
#SISTERS 3N     N/A         51  36  56  CALM    30.09R
#SUNRIVER       N/A         53  37  54  CALM    30.10S
#TUMALO 3W      N/A         55  36  49  CALM    29.93S
#WANOGA BUTTE D N/A         44  33  65  N2      N/A

$$

ORZ044-240310-
LOWER COLUMBIA BASIN...OREGON

CITY            SKY/WX      TMP DP  RH  WIND    PRES   REMARKS
HERMISTON       CLEAR       64  46  52  E3      30.03S
#BOARDMAN SCHOOLN/A         67  43  42  CALM    30.01S
#BOARDMAN 8SW   N/A         66  44  45  NE3     30.03R
#ECHO 8SW       N/A         65  43  45  CALM    30.04S
#I-84 EX 198 DOTN/A         64  38  38  E7      N/A
#IONE SCHOOL    N/A         65  42  43  CALM    30.04R
#UMATILLA       N/A         68  40  36  CALM    29.95S
$$

ORZ507-240310-
NORTHERN FOOTHILLS OF THE BLUES

CITY            SKY/WX      TMP DP  RH  WIND    PRES   REMARKS
PENDLETON AIRPT CLEAR       57  39  51  N3      30.05R
#ADAMS 3WNW     N/A         58  39  49  NE3     30.04S
#ATHENA         N/A         58  39  49  CALM    30.08S
#CAYUSE         N/A         60  40  47  CALM    30.04R
#HELIX SCHOOL   N/A         59  39  47  NE3     30.06S
#HELIX 3N       N/A         56  38  51  NE3     30.03S
#HOLDMAN 5SE    N/A         59  41  51  CALM    30.04R
#HOLDMAN 6E     N/A         59  38  45  NE1     29.85S
#M-F GROVE ELEM N/A         63  36  36  CALM    30.02S
#M-FREEWATER 5SEN/A         61  42  50  CALM    30.05R
#PENDLETON DNTN N/A         63  37  38  CALM    30.01S
#PDT AQUATIC CTRN/A         60  39  46  CALM    30.05S
#PDT SUNRIDGE   N/A         64  39  40  NE1     30.06R
#PENDLETON 7NW  N/A         64  45  50  CALM    29.36R
#PILOT ROCK     N/A         56  38  51  CALM    30.07S
#TUTUILLA       N/A         60  42  51  CALM    30.09S
#UMAPINE 2E     N/A         58  47  67  CALM    30.01S
#WESTON SCHOOL  N/A         58  35  42  CALM    29.96R

$$

ORZ508-240310-
SOUTHERN FOOTHILLS OF THE BLUES

CITY            SKY/WX      TMP DP  RH  WIND    PRES   REMARKS
LEXINGTON       CLEAR       59  41  51  NE8     30.08S
#AJAX           N/A         61  32  33  W2      30.20S
#FOSSIL SCHOOL  N/A         62  37  39  N2      30.00S
#HEPPNER EOC    N/A         61  39  44  CALM    29.98S
#HEPPNER 4NE    N/A         56  38  51  CALM    30.05S
#LEXINGTON 2SE  N/A         65  41  41  CALM    30.03R
#MIKKALO        N/A         60  34  37  CALM    30.14S
#OLEX 4N        N/A         65  43  45  NE2     30.02R
#RUGGS 5NE      N/A         58  33  39  VRB3    30.23S
#RUGGS 2SW      N/A         56  37  49  CALM    30.06F

$$

ORZ502-503-240310-
BLUE MOUNTAINS

CITY            SKY/WX      TMP DP  RH  WIND    PRES   REMARKS
MEACHAM         CLEAR       47  34  60  CALM    30.09S
#BATTLE MTN DOT N/A         49  29  46  N3      N/A
#GRANITE        N/A         43  27  53  CALM    30.01S
#GREENHORN 9SW  N/A         51  35  54  CALM    26.26S
#HEPPNER 15SE   N/A         47  38  71  CALM    29.99S
#LADD CYN SMT   N/A         51  32  48  W3      N/A
#LADD CREEK ODOTN/A         52  36  54  CALM    N/A
#LONG CREEK HS  N/A         49  39  68  W2      30.08S
#N POWDER DOT   N/A         52  35  52  N8      N/A
#PIKES PEAK     N/A         52  36  54  CALM    27.99S
#SUMMERVILLE 5NWN/A         49  40  71  CALM    28.03S
#TOLLGATE       N/A         43  38  82  CALM    29.95S
#TROY SCHOOL    N/A         56  44  64  CALM    29.92S
#UKIAH          N/A         53  38  57  N2      30.04R
#WESTON 4E      N/A         52  37  56  CALM    30.05S
$$

ORZ505-240310-
JOHN DAY BASIN

CITY            SKY/WX      TMP DP  RH  WIND    PRES   REMARKS
JOHN DAY        PTCLDY      55  32  41  CALM    30.08S
#ANTELOPE 9ESE  N/A         65  36  34  NE1     N/A
#DAYVILLE SCHOOLN/A         60  29  31  CALM    30.01S
#MITCHELL       N/A         56  40  55  CALM    30.22S
#MONUMENT HS    N/A         64  34  33  CALM    30.00S
#MT. VERNON 5SE N/A         52  33  48  CALM    30.03S
#SPRAY SCHOOL   N/A         60  N/A N/A CALM    N/A
#WINLOCK        N/A         50  37  61  CALM    30.03R
$$

ORZ506-240310-
OCHOCO AND JOHN DAY HIGHLANDS

CITY            SKY/WX      TMP DP  RH  WIND    PRES   REMARKS
#HORSE RIDGE DO N/A         54  31  41  N5      N/A
#IZEE 6NW       N/A         53  31  43  SE1     N/A
#PAULINA ODOT   N/A         55  24  30  N5      N/A
#PINE MTN OBS   N/A         42  33  70  CALM    N/A
#PRAIRIE CITY   N/A         53  38  57  CALM    30.21F
#SENECA         N/A         49  N/A N/A CALM    N/A
#SENECA 9NW     N/A         48  32  54  CALM    30.12S
$$

ORZ049-240310-
GRANDE RONDE VALLEY

CITY            SKY/WX      TMP DP  RH  WIND    PRES   REMARKS
LA GRANDE       CLOUDY      54  41  61  N6      30.08S
#COVE           N/A         51  46  83  CALM    30.10R
#COVE SCHOOL    N/A         49  43  80  CALM    30.09S
#COVE 6NW       N/A         54  42  64  CALM    30.10S
#ELGIN 3N       N/A         53  41  64  CALM    30.48S
#ELGIN 1E       N/A         55  40  57  CALM    N/A
#IMBLER SCHOOL  N/A         52  41  66  CALM    30.04R
#ISLAND CITY 4N N/A         64  53  67  CALM    30.07S
#UNION 1S       N/A         51  40  66  CALM    30.10S
$$

ORZ050-240310-
WALLOWA COUNTY

CITY            SKY/WX      TMP DP  RH  WIND    PRES   REMARKS
JOSEPH AIRPORT  PTCLDY      43  36  76  CALM    30.12R
#ENTERPRISE HS  N/A         46  38  73  CALM    30.03S
#IMNAHA SCHOOL  N/A         56  39  53  CALM    30.07S
#IMNAHA 10S     N/A         52  35  52  CALM    30.08R
#JOSEPH         N/A         44  36  73  CALM    30.30R
#JOSEPH 3N      N/A         44  35  70  CALM    30.11S
#JOSEPH 3W      N/A         41  37  86  SW2     30.46S
#LOSTINE        N/A         49  39  68  CALM    29.93S
#LOSTINE 3SE    N/A         46  36  68  CALM    30.14S
#MT HOWARD 8000 N/A         29  27  92  N1      30.11S
#PROMISE 1S     N/A         48  41  77  CALM    30.19F
#WALLOWA LAKE   N/A         43  38  82  CALM    30.13S
#WALLOWA SCHOOL N/A         50  40  68  CALM    30.05S



$$



USA.gov is the U.S. government's official web portal to all federal, state and local government web resources and services.